weather.gov     
National Weather Service

Other Surface Observations
NWS Homepage
This page is being discontinued on March 12, 2014.
The same data is available at this site. Please update your bookmarks.
Thank you, and we apologize for the inconvenience.
Please send an email to SR-SRH.Webmaster@noaa.gov with any concerns.


Current Version
Previous Version:    01  02  03  04  05  06  07  08  09  10  11  12  13  14  15  16  17  18  19  20  21  22  23  24  25  26  27  28  29  30  
   31  32  33  34  35  36  37  38  39  40  41  42  43  44  45  46  47  48  49  50  51  52  53  54  55  56  57  58  59  60  
[Printable]
326
SXUS55 KTWC 201316
OSOTWC

WEATHER ROUNDUP FOR SOUTHEAST ARIZONA
NATIONAL WEATHER SERVICE TUCSON AZ
615 AM MST MON OCT 20 2014

AZZ504>506-514-201415-
LOCATION       SKY/WX    TMP DP  RH WIND       PRES   REMARKS
TUCSON         CLEAR     64  49  57 SE15      29.96R
DAVIS-MONTHAN  CLEAR     62  49  62 SE14      29.94R
CHILDRENS PARK N/A       58  52  79 E4                PIMA CO DEQ
ALVERNON/22ND  N/A      N/A N/A N/A N/A               PIMA CO DEQ
CHERRY/GLENN   N/A      N/A N/A N/A N/A               PIMA CO DEQ
TANGERINE      N/A       59 N/A N/A E2                PIMA CO DEQ
CONTL RANCH    N/A       59  51  74 SE3               PIMA CO DEQ
GRANT/1ST      N/A       62  51  67 SE4               PIMA CO DEQ
CRAYCROFT/22ND N/A      N/A N/A N/A N/A               PIMA CO DEQ
GOLFLINKS/KOLB N/A       62  51  66 SE6               PIMA CO DEQ
AJO/12TH       N/A       63  50  63 S8                PIMA CO DEQ
SAGUARO EAST   N/A      N/A N/A N/A N/A               PIMA CO DEQ
FAIRGROUNDS    N/A       60 N/A N/A SE13              PIMA CO DEQ
SAGUARO        N/A       55  51  87 N4                *SABINO CYN
SAN CARLOS     N/A       53  51  94 W2                *SAN CARLOS
GREEN VALLEY   N/A       53  51  93 S4                PIMA CO DEQ
HORSE CAMP CYN N/A       57  48  73 E14G17            *ARAVAIPA CYN
RINCON MTNS    N/A       46  39  75 E8G17             *NR MANNING CAMP
$$

AZZ509>511-201415-
LOCATION       SKY/WX    TMP DP  RH WIND       PRES   REMARKS
SAFFORD        CLEAR     54  50  86 SE7       30.03R
STRAY HORSE    N/A       47  37  67 E5G10             *
TRAIL CABIN    N/A       45  42  90 NE4G11            *N OF GRANVILLE
BLACK HILLS    N/A       53  50  89 SE3               *N OF FT THOMAS
DRY LAKE       N/A       45  41  86 SE8G13            *NATANES MTNS
NOON CREEK     N/A       56  46  69 SW5G10            *PINALENO MTNS
COLUMBINE      N/A       35  33  91 SE2               *PINALENO MTNS
GUTHRIE        N/A       49  43  80 E13               *SW OF GUTHRIE
$$

AZZ502-503-513-201415-
LOCATION       SKY/WX    TMP DP  RH WIND       PRES   REMARKS
NOGALES        CLEAR     53  45  74 NE8       30.00R
SELLS          N/A       58  49  71 NE4               *
SASABE         N/A       49  46  90 SW4               *ALTAR VLY
HOPKINS        N/A       52  38  59 E12G17            *SANTA RITA MTNS
CARR CYN       N/A       54  46  73 SE4G11            *W OF HEREFORD
$$

AZZ507-508-512-201415-
LOCATION       SKY/WX    TMP DP  RH WIND       PRES   REMARKS
SIERRA VISTA   PTCLDY    52  46  82 VRB3      30.05R
DOUGLAS        CLEAR     47  44  90 N6        30.03F
EMPIRE MTNS    N/A       47  43  87 W3                *LAS CIENEGAS NCA
MULESHOE RANCH N/A       58  43  58 E9G18             *PRESERVE
HEADQUARTERS   N/A       54  47  76 NE5G19            *CHIRICAHUA MTNS
$$

.............................NOTES.............................
THIS IS AN AUTOMATED COLLECTIVE WITH MINIMAL QUALITY CONTROL.
PIMA CO DEQ SITES HAVE NONSTANDARD WIND SENSOR HEIGHTS.
PIMA CO DEQ SITES DO NOT REPORT WIND GUSTS.
* INDICATES WIND SENSORS LOCATED AT 20 FEET INSTEAD OF 33 FEET.
..............................KEY..............................
SKY/WX - SKY CONDITION/WEATHER
TMP    - TEMPERATURE IN FAHRENHEIT
DP     - DEWPOINT IN FAHRENHEIT
RH     - RELATIVE HUMIDITY IN PERCENT
WIND   - DIRECTION AND SPEED IN MILES PER HOUR (MPH)
VRB    - VARIABLE WIND DIRECTION
PRES   - MEAN SEA LEVEL PRESSURE IN INCHES OF MERCURY
         F - FALLING PRESSURE   R - RISING PRESSURE
         S - STEADY PRESSURE
VSB    - VISIBILITY IN MILES
HX     - HEAT INDEX IN FAHRENHEIT
WCI    - WIND CHILL INDEX IN FAHRENHEIT
N/A    - NOT AVAILABLE
AFB    - AIR FORCE BASE
         DAVIS-MONTHAN IS DAVIS-MONTHAN AIR FORCE BASE
CYN    - CANYON
MTNS   - MOUNTAINS
NCA    - NATIONAL CONSERVATION AREA
NR     - NEAR
VLY    - VALLEY
CONTL  - CONTINENTAL
PIMA CO DEQ - PIMA COUNTY DEPT OF ENVIRONMENTAL QUALITY




U.S. Dept. of Commerce
NOAA National Weather Service
1325 East West Highway
Silver Spring, MD 20910
E-mail: w-nws.webmaster@noaa.gov
Page last modified: May 16, 2007
NATIONAL WEATHER SERVICE: for Safety, for Work, for Fun - FOR LIFE